Date,TemperatureHighF,TemperatureAvgF,TemperatureLowF,DewpointHighF,DewpointAvgF,DewpointLowF,HumidityHigh,HumidityAvg,HumidityLow,PressureMaxIn,PressureMinIn,WindSpeedMaxMPH,WindSpeedAvgMPH,GustSpeedMaxMPH,PrecipitationSumIn
2013-6-1,56,51,46,47,45,43,93,79,66,30.03,29.98,7,1,10,0.00
2013-6-2,54,48,45,48,44,39,95,87,70,30.06,29.92,7,1,11,0.30
2013-6-3,59,51,45,40,38,36,81,63,47,29.92,29.59,10,2,15,0.00
2013-6-4,59,52,46,42,38,34,87,61,42,29.66,29.52,17,4,22,0.00
2013-6-5,71,52,37,41,36,33,90,56,32,29.79,29.66,10,2,16,0.00
2013-6-6,71,57,40,43,37,33,86,51,32,29.79,29.50,11,4,17,0.00
2013-6-7,76,57,41,53,43,37,89,63,34,29.76,29.52,9,2,16,0.02
2013-6-8,80,62,45,51,45,39,89,57,32,29.93,29.76,10,2,16,0.00
2013-6-9,82,66,49,50,45,39,84,51,23,30.01,29.94,13,3,18,0.00
2013-6-10,79,64,47,49,46,42,86,55,31,30.05,29.91,11,2,18,0.00
2013-6-11,84,66,52,49,45,41,77,50,26,29.95,29.78,9,2,21,0.00
2013-6-12,79,66,54,47,41,35,72,41,28,29.82,29.74,12,4,21,0.00
2013-6-13,72,63,50,49,45,40,80,54,38,29.98,29.79,11,3,19,0.00
2013-6-14,74,62,44,50,46,41,91,60,35,30.08,30.00,13,2,15,0.00
2013-6-15,76,64,46,54,49,43,89,62,44,30.15,30.04,10,2,12,0.00
2013-6-16,86,70,53,57,51,43,91,55,36,30.07,29.92,8,2,11,0.00
2013-6-17,90,72,56,59,54,48,85,55,36,29.94,29.68,6,2,11,0.00
2013-6-18,80,73,62,56,42,36,76,34,25,29.70,29.58,25,11,38,0.00
2013-6-19,72,64,54,49,44,40,75,50,33,29.79,29.71,21,5,33,0.00
2013-6-20,81,63,47,53,48,43,87,59,36,29.84,29.75,11,3,21,0.00
2013-6-21,62,54,48,49,46,42,91,76,58,29.91,29.85,14,3,17,0.00
2013-6-22,75,58,41,52,43,38,94,62,33,29.89,29.60,9,2,21,0.00
2013-6-23,72,61,49,49,44,39,75,55,39,29.61,29.46,10,4,14,0.00
2013-6-24,78,64,52,55,49,41,80,59,41,29.51,29.42,11,2,14,0.00
2013-6-25,86,67,51,57,52,47,90,62,34,29.45,29.40,8,2,11,0.00
2013-6-26,89,69,55,57,52,49,89,59,30,29.68,29.44,13,2,20,0.00
2013-6-27,73,63,53,58,53,48,87,71,56,29.89,29.69,10,2,14,0.00
2013-6-28,62,57,54,55,53,51,93,87,78,30.02,29.90,6,1,9,0.00
2013-6-29,70,59,53,56,53,51,96,83,61,29.98,29.84,4,0,7,0.00
2013-6-30,64,58,54,55,52,49,92,81,71,29.89,29.67,4,1,8,0.00